• In Deutschland
  • Länderverzeichnis
  • Für 7 Tage
  • Wassertemperatur
  • Satellitenkarten
  • Wetterkarte
  • Widgets
  • user-avatar
    Anmelden

    Stündliche Wetter Lyubovka

    Heute, 24 September, Montag

    Zeit Temperatur Niederschläge Wind Luftdruck Luftfeuchtigkeit
    00:00 +8°C° 0 mm 3 m/S 742 mmHg 86%
    01:00 +8°C° 0 mm 3 m/S 741 mmHg 86%
    02:00 +7°C° 0 mm 2 m/S 741 mmHg 88%
    03:00 +7°C° 0.1 mm 3 m/S 740 mmHg 88%
    04:00 +8°C° 0.1 mm 3 m/S 740 mmHg 87%
    05:00 +7°C° 0.1 mm 4 m/S 739 mmHg 86%
    06:00 +7°C° 0.7 mm 4 m/S 739 mmHg 87%
    07:00 +8°C° 0.7 mm 5 m/S 738 mmHg 88%
    08:00 +8°C° 0.7 mm 5 m/S 738 mmHg 89%
    09:00 +8°C° 1.8 mm 6 m/S 736 mmHg 89%
    10:00 +8°C° 1.8 mm 7 m/S 735 mmHg 89%
    11:00 +7°C° 1.8 mm 8 m/S 734 mmHg 90%
    12:00 +9°C° 1.9 mm 8 m/S 733 mmHg 90%
    13:00 +9°C° 1.9 mm 8 m/S 731 mmHg 91%
    14:00 +10°C° 1.9 mm 8 m/S 730 mmHg 91%
    15:00 +10°C° 0.4 mm 8 m/S 730 mmHg 90%
    16:00 +10°C° 0.4 mm 8 m/S 729 mmHg 89%
    17:00 +10°C° 0.4 mm 9 m/S 729 mmHg 88%
    18:00 +9°C° 0.1 mm 8 m/S 729 mmHg 88%
    19:00 +7°C° 0.1 mm 8 m/S 730 mmHg 88%
    20:00 +6°C° 0.1 mm 8 m/S 731 mmHg 87%
    21:00 +6°C° 0.1 mm 8 m/S 731 mmHg 87%
    22:00 +6°C° 0.1 mm 7 m/S 732 mmHg 87%
    23:00 +6°C° 0.1 mm 7 m/S 733 mmHg 87%

    Morgen, 25 September, Dienstag

    Zeit Temperatur Niederschläge Wind Luftdruck Luftfeuchtigkeit
    00:00 +6°C° 0.1 mm 7 m/S 734 mmHg 87%
    01:00 +6°C° 0.1 mm 7 m/S 734 mmHg 88%
    02:00 +6°C° 0.1 mm 7 m/S 735 mmHg 88%
    03:00 +7°C° 0.1 mm 6 m/S 735 mmHg 88%
    04:00 +5°C° 0.1 mm 6 m/S 736 mmHg 87%
    05:00 +5°C° 0.1 mm 6 m/S 737 mmHg 87%
    06:00 +5°C° 0 mm 7 m/S 737 mmHg 86%
    07:00 +5°C° 0 mm 7 m/S 738 mmHg 85%
    08:00 +5°C° 0 mm 7 m/S 739 mmHg 84%
    09:00 +5°C° 0 mm 7 m/S 739 mmHg 83%
    10:00 +5°C° 0 mm 7 m/S 740 mmHg 81%
    11:00 +5°C° 0 mm 7 m/S 741 mmHg 80%
    12:00 +5°C° 0 mm 6 m/S 741 mmHg 79%
    13:00 +5°C° 0 mm 6 m/S 742 mmHg 77%
    14:00 +7°C° 0 mm 6 m/S 742 mmHg 76%
    15:00 +7°C° 0 mm 5 m/S 743 mmHg 75%
    16:00 +7°C° 0 mm 5 m/S 744 mmHg 74%
    17:00 +7°C° 0 mm 4 m/S 744 mmHg 73%
    18:00 +6°C° 0 mm 4 m/S 745 mmHg 75%
    19:00 +5°C° 0 mm 4 m/S 745 mmHg 76%
    20:00 +4°C° 0 mm 4 m/S 746 mmHg 77%
    21:00 +4°C° 0 mm 4 m/S 747 mmHg 77%
    22:00 +3°C° 0 mm 4 m/S 747 mmHg 77%
    23:00 +3°C° 0 mm 4 m/S 748 mmHg 76%

    übermorgen, 26 September, Mittwoch

    Zeit Temperatur Niederschläge Wind Luftdruck Luftfeuchtigkeit
    00:00 +1°C° 0 mm 4 m/S 749 mmHg 77%
    01:00 +1°C° 0 mm 4 m/S 749 mmHg 78%
    02:00 +1°C° 0 mm 4 m/S 750 mmHg 78%
    03:00 0°C° 0 mm 4 m/S 750 mmHg 79%
    04:00 0°C° 0 mm 4 m/S 751 mmHg 79%
    05:00 0°C° 0 mm 4 m/S 751 mmHg 79%
    06:00 0°C° 0 mm 4 m/S 752 mmHg 76%
    07:00 +1°C° 0 mm 4 m/S 752 mmHg 73%
    08:00 +3°C° 0 mm 4 m/S 753 mmHg 70%
    09:00 +4°C° 0 mm 4 m/S 753 mmHg 67%
    10:00 +6°C° 0 mm 4 m/S 753 mmHg 63%
    11:00 +8°C° 0 mm 4 m/S 753 mmHg 59%
    12:00 +8°C° 0 mm 4 m/S 753 mmHg 59%
    13:00 +10°C° 0 mm 4 m/S 752 mmHg 59%
    14:00 +9°C° 0 mm 5 m/S 752 mmHg 59%
    15:00 +10°C° 0 mm 4 m/S 751 mmHg 62%
    16:00 +8°C° 0 mm 4 m/S 751 mmHg 66%
    17:00 +8°C° 0 mm 3 m/S 751 mmHg 69%
    18:00 +7°C° 0 mm 4 m/S 750 mmHg 68%
    19:00 +7°C° 0 mm 5 m/S 750 mmHg 66%
    20:00 +6°C° 0 mm 5 m/S 749 mmHg 65%
    21:00 +5°C° 0.2 mm 6 m/S 749 mmHg 69%
    22:00 +5°C° 0.2 mm 6 m/S 748 mmHg 73%
    23:00 +4°C° 0.2 mm 7 m/S 747 mmHg 78%

    27 September, Donnerstag

    Zeit Temperatur Niederschläge Wind Luftdruck Luftfeuchtigkeit
    00:00 +4°C° 0.8 mm 7 m/S 746 mmHg 81%
    01:00 +4°C° 0.8 mm 8 m/S 745 mmHg 84%
    02:00 +4°C° 0.8 mm 8 m/S 744 mmHg 87%
    03:00 +4°C° 1.7 mm 8 m/S 743 mmHg 88%
    04:00 +5°C° 1.7 mm 8 m/S 743 mmHg 90%
    05:00 +5°C° 1.7 mm 8 m/S 742 mmHg 91%
    06:00 +5°C° 0.7 mm 7 m/S 742 mmHg 91%
    07:00 +5°C° 0.7 mm 7 m/S 742 mmHg 92%
    08:00 +7°C° 0.7 mm 6 m/S 742 mmHg 92%
    09:00 +7°C° 0.5 mm 6 m/S 741 mmHg 91%
    10:00 +8°C° 0.5 mm 6 m/S 741 mmHg 90%
    11:00 +8°C° 0.5 mm 5 m/S 741 mmHg 90%
    12:00 +9°C° 0.2 mm 5 m/S 741 mmHg 89%
    13:00 +9°C° 0.2 mm 5 m/S 741 mmHg 89%
    14:00 +9°C° 0.2 mm 5 m/S 741 mmHg 89%
    15:00 +10°C° 0.2 mm 5 m/S 741 mmHg 89%
    16:00 +10°C° 0.2 mm 5 m/S 741 mmHg 89%
    17:00 +10°C° 0.2 mm 5 m/S 741 mmHg 89%
    18:00 +9°C° 0.1 mm 5 m/S 741 mmHg 90%
    19:00 +10°C° 0.1 mm 4 m/S 742 mmHg 92%
    20:00 +10°C° 0.1 mm 4 m/S 742 mmHg 93%
    21:00 +8°C° 0 mm 4 m/S 742 mmHg 93%
    22:00 +9°C° 0 mm 3 m/S 743 mmHg 93%
    23:00 +9°C° 0 mm 3 m/S 743 mmHg 94%

    28 September, Freitag

    Zeit Temperatur Niederschläge Wind Luftdruck Luftfeuchtigkeit
    00:00 +9°C° 0 mm 3 m/S 743 mmHg 94%
    01:00 +9°C° 0 mm 3 m/S 743 mmHg 94%
    02:00 +9°C° 0 mm 2 m/S 744 mmHg 94%
    03:00 +8°C° 0 mm 2 m/S 743 mmHg 95%
    04:00 +8°C° 0 mm 2 m/S 743 mmHg 96%
    05:00 +8°C° 0 mm 3 m/S 743 mmHg 97%
    06:00 +8°C° 0.1 mm 4 m/S 742 mmHg 96%
    07:00 +9°C° 0.1 mm 5 m/S 742 mmHg 94%
    08:00 +10°C° 0.1 mm 6 m/S 741 mmHg 93%
    09:00 +10°C° 0.1 mm 7 m/S 741 mmHg 91%
    10:00 +11°C° 0.1 mm 7 m/S 740 mmHg 90%
    11:00 +11°C° 0.1 mm 7 m/S 740 mmHg 88%
    12:00 +12°C° 0.1 mm 7 m/S 739 mmHg 88%
    13:00 +12°C° 0.1 mm 7 m/S 739 mmHg 88%
    14:00 +12°C° 0.1 mm 8 m/S 739 mmHg 87%
    15:00 +12°C° 0.2 mm 7 m/S 738 mmHg 88%
    16:00 +12°C° 0.2 mm 7 m/S 738 mmHg 88%
    17:00 +14°C° 0.2 mm 7 m/S 738 mmHg 88%
    18:00 +13°C° 0.2 mm 6 m/S 738 mmHg 88%
    19:00 +13°C° 0.2 mm 6 m/S 738 mmHg 88%
    20:00 +11°C° 0.2 mm 6 m/S 738 mmHg 87%
    21:00 +10°C° 0 mm 5 m/S 738 mmHg 89%
    22:00 +10°C° 0 mm 4 m/S 739 mmHg 90%
    23:00 +8°C° 0 mm 4 m/S 739 mmHg 92%

    29 September, Samstag

    Zeit Temperatur Niederschläge Wind Luftdruck Luftfeuchtigkeit
    00:00 +8°C° 0 mm 4 m/S 740 mmHg 92%
    01:00 +8°C° 0 mm 3 m/S 740 mmHg 91%
    02:00 +7°C° 0 mm 3 m/S 741 mmHg 91%
    03:00 +7°C° 0 mm 3 m/S 742 mmHg 90%
    04:00 +5°C° 0 mm 3 m/S 742 mmHg 90%
    05:00 +5°C° 0 mm 3 m/S 743 mmHg 89%
    06:00 +5°C° 0 mm 3 m/S 743 mmHg 87%
    07:00 +5°C° 0 mm 3 m/S 744 mmHg 85%
    08:00 +5°C° 0 mm 3 m/S 745 mmHg 84%
    09:00 +7°C° 0 mm 3 m/S 745 mmHg 78%
    10:00 +7°C° 0 mm 4 m/S 746 mmHg 71%
    11:00 +8°C° 0 mm 4 m/S 746 mmHg 65%
    12:00 +9°C° 0 mm 3 m/S 747 mmHg 62%
    13:00 +9°C° 0 mm 3 m/S 747 mmHg 58%
    14:00 +10°C° 0 mm 3 m/S 747 mmHg 55%
    15:00 +9°C° 0 mm 2 m/S 748 mmHg 59%
    16:00 +8°C° 0 mm 2 m/S 748 mmHg 63%
    17:00 +7°C° 0 mm 2 m/S 748 mmHg 67%
    18:00 +6°C° 0 mm 2 m/S 749 mmHg 70%
    19:00 +5°C° 0 mm 2 m/S 750 mmHg 72%
    20:00 +4°C° 0 mm 2 m/S 751 mmHg 75%
    21:00 +4°C° 0 mm 2 m/S 751 mmHg 78%
    22:00 +4°C° 0 mm 2 m/S 752 mmHg 80%
    23:00 +4°C° 0 mm 2 m/S 752 mmHg 83%
    Mehr zeigen